This is the latest recevied weather packets stored in our database for station/object KN6CRX. If no packets are shown the sender has not sent any weather packets the latest 10 day(s).
| Time | Temp. | Humidity | Pressure | Rain* | Wind** | Luminosity | Snow |
|---|---|---|---|---|---|---|---|
| 1787672537 | 20° C | 64% | 1026.9 hPa | 0 mm | - | 369 W/m² | - |
| 1787672235 | 19.44° C | 66% | 1027.1 hPa | 0 mm | - | 350 W/m² | - |
| 1787671935 | 18.89° C | 68% | 1026.8 hPa | 0 mm | - | 338 W/m² | - |
| 1787671631 | 18.89° C | 70% | 1026.9 hPa | 0 mm | - | 317 W/m² | - |
| 1787671331 | 18.33° C | 70% | 1026.8 hPa | 0 mm | - | 60 W/m² | - |
| 1787671026 | 18.33° C | 74% | 1026.8 hPa | 0 mm | - | 60 W/m² | - |
| 1787670722 | 17.78° C | 75% | 1026.8 hPa | 0 mm | - | 59 W/m² | - |
| 1787670416 | 17.78° C | 75% | 1026.9 hPa | 0 mm | - | 58 W/m² | - |
| 1787670115 | 17.78° C | 74% | 1026.7 hPa | 0 mm | - | 57 W/m² | - |
| 1787669815 | 17.78° C | 73% | 1026.7 hPa | 0 mm | - | 56 W/m² | - |
| 1787669511 | 17.78° C | 73% | 1026.9 hPa | 0 mm | - | 56 W/m² | - |
| 1787669206 | 17.78° C | 74% | 1026.7 hPa | 0 mm | - | 55 W/m² | - |
| 1787668902 | 17.22° C | 71% | 1026.8 hPa | 0 mm | - | 54 W/m² | - |
| 1787668598 | 16.67° C | 70% | 1027 hPa | 0 mm | - | 51 W/m² | - |
| 1787668294 | 16.67° C | 71% | 1026.8 hPa | 0 mm | - | 50 W/m² | - |
| 1787667988 | 16.67° C | 74% | 1026.9 hPa | 0 mm | - | 48 W/m² | - |
| 1787667684 | 16.11° C | 74% | 1026.9 hPa | 0 mm | - | 47 W/m² | - |
| 1787667380 | 15.56° C | 74% | 1026.7 hPa | 0 mm | - | 45 W/m² | - |
| 1787667079 | 15.56° C | 77% | 1026.7 hPa | 0 mm | - | 43 W/m² | - |
| 1787666775 | 15.56° C | 77% | 1026.9 hPa | 0 mm | - | 41 W/m² | - |
| 1787666475 | 15° C | 80% | 1026.6 hPa | 0 mm | - | 39 W/m² | - |
| 1787666171 | 15° C | 81% | 1026.6 hPa | 0 mm | - | 36 W/m² | - |
| 1787665866 | 14.44° C | 82% | 1026.6 hPa | 0 mm | - | 35 W/m² | - |
| 1787665562 | 14.44° C | 83% | 1026.8 hPa | 0 mm | - | 34 W/m² | - |
| 1787665261 | 14.44° C | 82% | 1026.6 hPa | 0 mm | - | 36 W/m² | - |
* Rain latest hour (hover to see other rain measurements)
** Current wind speed in m/s (hover to see current wind gust speed)